Time,TemperatureF,DewpointF,PressureIn,WindDirection,WindDirectionDegrees,WindSpeedMPH,WindSpeedGustMPH,Humidity,HourlyPrecipIn,Conditions,Clouds,dailyrainin,SoftwareType,DateUTC
2013-01-26 00:01:00,37.9,37.2,-100.00,WNW,294,0.0,0.0,97,0.00,,,0.00,VWS V14.01,2013-01-26 08:01:00,
2013-01-26 00:06:00,37.9,37.2,-100.00,ESE,119,2.7,4.0,97,0.00,,,0.00,VWS V14.01,2013-01-26 08:06:00,
2013-01-26 00:11:00,37.9,37.2,-100.00,SSE,156,3.1,3.1,97,0.00,,,0.00,VWS V14.01,2013-01-26 08:11:00,
2013-01-26 00:16:00,37.8,36.7,-100.00,NW,318,5.4,5.8,96,0.00,,,0.00,VWS V14.01,2013-01-26 08:16:00,
2013-01-26 00:21:00,37.6,36.5,-100.00,West,275,0.0,3.6,96,0.00,,,0.00,VWS V14.01,2013-01-26 08:21:00,
2013-01-26 00:26:00,37.4,35.6,-100.00,WSW,252,0.0,2.2,93,0.00,,,0.00,VWS V14.01,2013-01-26 08:26:00,
2013-01-26 00:31:00,37.2,35.4,-100.00,SW,221,0.0,0.0,93,0.00,,,0.00,VWS V14.01,2013-01-26 08:31:00,
2013-01-26 00:36:00,36.9,33.1,-100.00,SSW,213,0.0,3.1,86,0.00,,,0.00,VWS V14.01,2013-01-26 08:36:00,
2013-01-26 00:41:00,36.9,31.3,-100.00,North,0,4.0,4.0,80,0.00,,,0.00,VWS V14.01,2013-01-26 08:41:00,
2013-01-26 00:46:00,36.9,30.6,-100.00,SSE,156,3.1,3.1,78,0.00,,,0.00,VWS V14.01,2013-01-26 08:46:00,
2013-01-26 00:51:00,36.9,28.7,-100.00,West,263,3.6,5.8,72,0.00,,,0.00,VWS V14.01,2013-01-26 08:51:00,
2013-01-26 00:56:00,37.0,28.9,-100.00,West,263,2.2,5.4,72,0.00,,,0.00,VWS V14.01,2013-01-26 08:56:00,
2013-01-26 01:01:00,37.0,27.5,-100.00,SSE,157,2.2,2.2,68,0.00,,,0.00,VWS V14.01,2013-01-26 09:01:00,
2013-01-26 01:06:00,36.7,29.2,-100.00,ESE,113,0.0,0.0,74,0.00,,,0.00,VWS V14.01,2013-01-26 09:06:00,
2013-01-26 01:11:00,35.6,29.1,-100.00,ESE,104,0.0,0.0,77,0.00,,,0.00,VWS V14.01,2013-01-26 09:11:00,
2013-01-26 01:16:00,35.1,29.2,-100.00,ESE,104,0.0,0.0,79,0.00,,,0.00,VWS V14.01,2013-01-26 09:16:00,
2013-01-26 01:21:00,34.5,29.3,-100.00,ESE,104,0.0,0.0,81,0.00,,,0.00,VWS V14.01,2013-01-26 09:21:00,
2013-01-26 01:26:00,34.0,29.4,-100.00,ESE,104,0.0,0.0,83,0.00,,,0.00,VWS V14.01,2013-01-26 09:26:00,
2013-01-26 01:31:00,33.6,29.3,-100.00,ESE,104,0.0,0.0,84,0.00,,,0.00,VWS V14.01,2013-01-26 09:31:00,
2013-01-26 01:36:00,33.4,29.4,-100.00,ESE,104,0.0,0.0,85,0.00,,,0.00,VWS V14.01,2013-01-26 09:36:00,
2013-01-26 01:41:00,33.3,29.5,-100.00,WSW,241,0.0,0.0,86,0.00,,,0.00,VWS V14.01,2013-01-26 09:41:00,
2013-01-26 01:46:00,33.4,28.8,-100.00,WSW,253,2.2,2.2,83,0.00,,,0.00,VWS V14.01,2013-01-26 09:46:00,
2013-01-26 01:51:00,34.0,28.2,-100.00,WSW,245,3.1,3.1,79,0.00,,,0.00,VWS V14.01,2013-01-26 09:51:00,
2013-01-26 01:56:00,34.5,26.8,-100.00,South,190,0.0,0.0,73,0.00,,,0.00,VWS V14.01,2013-01-26 09:56:00,
2013-01-26 02:01:00,35.1,25.2,-100.00,West,272,3.1,4.0,67,0.00,,,0.00,VWS V14.01,2013-01-26 10:01:00,
2013-01-26 02:06:00,35.8,22.0,-100.00,WSW,243,2.7,4.0,57,0.00,,,0.00,VWS V14.01,2013-01-26 10:06:00,
2013-01-26 02:11:00,36.7,21.6,-100.00,WSW,239,3.6,8.7,54,0.00,,,0.00,VWS V14.01,2013-01-26 10:11:00,
2013-01-26 02:16:00,37.0,22.0,-100.00,SW,222,6.3,6.3,54,0.00,,,0.00,VWS V14.01,2013-01-26 10:16:00,
2013-01-26 02:21:00,36.9,21.3,-100.00,SW,224,4.0,6.3,53,0.00,,,0.00,VWS V14.01,2013-01-26 10:21:00,
2013-01-26 02:26:00,36.7,21.6,-100.00,WSW,248,4.0,5.8,54,0.00,,,0.00,VWS V14.01,2013-01-26 10:26:00,
2013-01-26 02:31:00,36.3,21.7,-100.00,West,263,4.0,5.4,55,0.00,,,0.00,VWS V14.01,2013-01-26 10:31:00,
2013-01-26 02:36:00,36.0,20.5,-100.00,SW,232,0.0,3.1,53,0.00,,,0.00,VWS V14.01,2013-01-26 10:36:00,
2013-01-26 02:41:00,35.8,20.8,-100.00,WSW,252,0.0,3.1,54,0.00,,,0.00,VWS V14.01,2013-01-26 10:41:00,
2013-01-26 02:46:00,35.6,21.0,-100.00,SSE,163,0.0,0.0,55,0.00,,,0.00,VWS V14.01,2013-01-26 10:46:00,
2013-01-26 02:51:00,35.2,21.1,-100.00,SW,227,0.0,0.0,56,0.00,,,0.00,VWS V14.01,2013-01-26 10:51:00,
2013-01-26 02:56:00,34.5,21.3,-100.00,West,261,3.1,3.1,58,0.00,,,0.00,VWS V14.01,2013-01-26 10:56:00,
2013-01-26 03:01:00,34.2,21.3,-100.00,SSW,202,0.0,0.0,59,0.00,,,0.00,VWS V14.01,2013-01-26 11:01:00,
2013-01-26 03:06:00,34.2,21.3,-100.00,West,275,3.1,3.6,59,0.00,,,0.00,VWS V14.01,2013-01-26 11:06:00,
2013-01-26 03:11:00,34.5,20.5,-100.00,WSW,258,3.1,3.1,56,0.00,,,0.00,VWS V14.01,2013-01-26 11:11:00,
2013-01-26 03:16:00,34.9,21.2,-100.00,SW,220,0.0,0.0,57,0.00,,,0.00,VWS V14.01,2013-01-26 11:16:00,
2013-01-26 03:21:00,34.7,21.9,-100.00,SW,220,0.0,0.0,59,0.00,,,0.00,VWS V14.01,2013-01-26 11:21:00,
2013-01-26 03:26:00,34.3,22.7,-100.00,SW,220,0.0,0.0,62,0.00,,,0.00,VWS V14.01,2013-01-26 11:26:00,
2013-01-26 03:31:00,33.8,22.9,-100.00,SW,220,0.0,0.0,64,0.00,,,0.00,VWS V14.01,2013-01-26 11:31:00,
2013-01-26 03:36:00,33.3,22.8,-100.00,SW,220,0.0,0.0,65,0.00,,,0.00,VWS V14.01,2013-01-26 11:36:00,
2013-01-26 03:41:00,32.9,23.2,-100.00,SW,220,0.0,0.0,67,0.00,,,0.00,VWS V14.01,2013-01-26 11:41:00,
2013-01-26 03:46:00,32.4,23.7,-100.00,WNW,287,0.0,0.0,70,0.00,,,0.00,VWS V14.01,2013-01-26 11:46:00,
2013-01-26 03:51:00,32.0,24.3,-100.00,NE,49,0.0,0.0,73,0.00,,,0.00,VWS V14.01,2013-01-26 11:51:00,
2013-01-26 03:56:00,31.6,24.0,-100.00,NE,49,0.0,0.0,73,0.00,,,0.00,VWS V14.01,2013-01-26 11:56:00,
2013-01-26 04:01:00,31.3,24.0,-100.00,NE,49,0.0,0.0,74,0.00,,,0.00,VWS V14.01,2013-01-26 12:01:00,
2013-01-26 04:06:00,30.9,23.6,-100.00,NE,49,0.0,0.0,74,0.00,,,0.00,VWS V14.01,2013-01-26 12:06:00,
2013-01-26 04:11:00,30.6,23.9,-100.00,NE,48,0.0,0.0,76,0.00,,,0.00,VWS V14.01,2013-01-26 12:11:00,
2013-01-26 04:16:00,30.2,23.9,-100.00,NE,48,0.0,0.0,77,0.00,,,0.00,VWS V14.01,2013-01-26 12:16:00,
2013-01-26 04:21:00,30.4,23.7,-100.00,SW,227,0.0,0.0,76,0.00,,,0.00,VWS V14.01,2013-01-26 12:21:00,
2013-01-26 04:26:00,30.6,23.9,-100.00,West,274,0.0,0.0,76,0.00,,,0.00,VWS V14.01,2013-01-26 12:26:00,
2013-01-26 04:31:00,30.9,23.9,-100.00,NW,306,0.0,0.0,75,0.00,,,0.00,VWS V14.01,2013-01-26 12:31:00,
2013-01-26 04:36:00,31.3,23.3,-100.00,NW,306,0.0,0.0,72,0.00,,,0.00,VWS V14.01,2013-01-26 12:36:00,
2013-01-26 04:41:00,31.5,23.2,-100.00,NW,306,0.0,0.0,71,0.00,,,0.00,VWS V14.01,2013-01-26 12:41:00,
2013-01-26 04:46:00,31.8,21.4,-100.00,SSW,199,0.0,0.0,65,0.00,,,0.00,VWS V14.01,2013-01-26 12:46:00,
2013-01-26 04:51:00,32.5,21.0,-100.00,SSW,212,0.0,0.0,62,0.00,,,0.00,VWS V14.01,2013-01-26 12:51:00,
2013-01-26 04:56:00,32.7,20.4,-100.00,WNW,298,0.0,0.0,60,0.00,,,0.00,VWS V14.01,2013-01-26 12:56:00,
2013-01-26 05:01:00,33.3,20.1,-100.00,WSW,240,3.6,3.6,58,0.00,,,0.00,VWS V14.01,2013-01-26 13:01:00,
2013-01-26 05:06:00,34.3,18.5,-100.00,WSW,245,5.8,7.2,52,0.00,,,0.00,VWS V14.01,2013-01-26 13:06:00,
2013-01-26 05:11:00,34.9,19.5,-100.00,West,272,4.9,4.9,53,0.00,,,0.00,VWS V14.01,2013-01-26 13:11:00,
2013-01-26 05:16:00,34.7,19.3,-100.00,SSW,201,0.0,4.0,53,0.00,,,0.00,VWS V14.01,2013-01-26 13:16:00,
2013-01-26 05:21:00,34.5,19.6,-100.00,SSE,167,0.0,0.0,54,0.00,,,0.00,VWS V14.01,2013-01-26 13:21:00,
2013-01-26 05:26:00,34.2,19.7,-100.00,South,174,0.0,0.0,55,0.00,,,0.00,VWS V14.01,2013-01-26 13:26:00,
2013-01-26 05:31:00,33.6,20.4,-100.00,South,174,0.0,0.0,58,0.00,,,0.00,VWS V14.01,2013-01-26 13:31:00,
2013-01-26 05:36:00,33.1,20.3,-100.00,South,174,0.0,0.0,59,0.00,,,0.00,VWS V14.01,2013-01-26 13:36:00,
2013-01-26 05:41:00,32.7,20.4,-100.00,SE,144,0.0,0.0,60,0.00,,,0.00,VWS V14.01,2013-01-26 13:41:00,
2013-01-26 05:46:00,32.4,20.4,-100.00,SE,144,0.0,0.0,61,0.00,,,0.00,VWS V14.01,2013-01-26 13:46:00,
2013-01-26 05:51:00,32.0,20.9,-100.00,SE,144,0.0,0.0,63,0.00,,,0.00,VWS V14.01,2013-01-26 13:51:00,
2013-01-26 05:56:00,31.6,20.9,-100.00,SSE,159,0.0,0.0,64,0.00,,,0.00,VWS V14.01,2013-01-26 13:56:00,
2013-01-26 06:01:00,31.5,21.4,-100.00,SW,222,0.0,0.0,66,0.00,,,0.00,VWS V14.01,2013-01-26 14:01:00,
2013-01-26 06:06:00,31.3,21.6,-100.00,WSW,256,0.0,0.0,67,0.00,,,0.00,VWS V14.01,2013-01-26 14:06:00,
2013-01-26 06:11:00,31.5,21.4,-100.00,WSW,256,0.0,0.0,66,0.00,,,0.00,VWS V14.01,2013-01-26 14:11:00,
2013-01-26 06:16:00,31.5,21.4,-100.00,SSE,158,0.0,0.0,66,0.00,,,0.00,VWS V14.01,2013-01-26 14:16:00,
2013-01-26 06:21:00,31.1,21.4,-100.00,South,179,2.2,2.7,67,0.00,,,0.00,VWS V14.01,2013-01-26 14:21:00,
2013-01-26 06:26:00,31.1,21.4,-100.00,South,179,0.0,0.0,67,0.00,,,0.00,VWS V14.01,2013-01-26 14:26:00,
2013-01-26 06:31:00,30.7,21.1,-100.00,South,179,0.0,0.0,67,0.00,,,0.00,VWS V14.01,2013-01-26 14:31:00,
2013-01-26 06:36:00,30.6,21.6,-100.00,SSE,158,0.0,0.0,69,0.00,,,0.00,VWS V14.01,2013-01-26 14:36:00,
2013-01-26 06:41:00,30.6,21.3,-100.00,SSE,158,0.0,0.0,68,0.00,,,0.00,VWS V14.01,2013-01-26 14:41:00,
2013-01-26 06:46:00,30.6,21.3,-100.00,SSE,158,0.0,0.0,68,0.00,,,0.00,VWS V14.01,2013-01-26 14:46:00,
2013-01-26 06:51:00,30.2,21.3,-100.00,SSE,158,0.0,0.0,69,0.00,,,0.00,VWS V14.01,2013-01-26 14:51:00,
2013-01-26 06:56:00,30.2,21.6,-100.00,SSE,158,0.0,0.0,70,0.00,,,0.00,VWS V14.01,2013-01-26 14:56:00,
2013-01-26 07:01:00,30.0,22.1,-100.00,SSE,158,0.0,0.0,72,0.00,,,0.00,VWS V14.01,2013-01-26 15:01:00,
2013-01-26 07:06:00,29.7,22.4,-100.00,SSE,158,0.0,0.0,74,0.00,,,0.00,VWS V14.01,2013-01-26 15:06:00,
2013-01-26 07:11:00,29.5,22.5,-100.00,SSE,147,0.0,0.0,75,0.00,,,0.00,VWS V14.01,2013-01-26 15:11:00,
2013-01-26 07:16:00,29.5,22.9,-100.00,SSE,166,0.0,0.0,76,0.00,,,0.00,VWS V14.01,2013-01-26 15:16:00,
2013-01-26 07:21:00,29.5,23.2,-100.00,SSE,166,0.0,0.0,77,0.00,,,0.00,VWS V14.01,2013-01-26 15:21:00,
2013-01-26 07:26:00,29.7,23.6,-100.00,SSE,166,0.0,0.0,78,0.00,,,0.00,VWS V14.01,2013-01-26 15:26:00,
2013-01-26 07:31:00,29.7,23.6,-100.00,SSE,166,0.0,0.0,78,0.00,,,0.00,VWS V14.01,2013-01-26 15:31:00,
2013-01-26 07:36:00,29.5,23.2,-100.00,SSE,166,0.0,0.0,77,0.00,,,0.00,VWS V14.01,2013-01-26 15:36:00,
2013-01-26 07:41:00,29.3,23.3,-100.00,SSE,166,0.0,0.0,78,0.00,,,0.00,VWS V14.01,2013-01-26 15:41:00,
2013-01-26 07:46:00,29.1,22.8,-100.00,SSE,166,0.0,0.0,77,0.00,,,0.00,VWS V14.01,2013-01-26 15:46:00,
2013-01-26 07:51:00,28.6,22.3,-100.00,SSE,166,0.0,0.0,77,0.00,,,0.00,VWS V14.01,2013-01-26 15:51:00,
2013-01-26 07:56:00,28.4,22.7,-100.00,SSE,166,0.0,0.0,79,0.00,,,0.00,VWS V14.01,2013-01-26 15:56:00,
2013-01-26 08:01:00,28.2,22.6,-100.00,SSE,166,0.0,0.0,79,0.00,,,0.00,VWS V14.01,2013-01-26 16:01:00,
2013-01-26 08:06:00,28.4,23.0,-100.00,SSE,166,0.0,0.0,80,0.00,,,0.00,VWS V14.01,2013-01-26 16:06:00,
2013-01-26 08:11:00,28.6,22.9,-100.00,SSE,166,0.0,0.0,79,0.00,,,0.00,VWS V14.01,2013-01-26 16:11:00,
2013-01-26 08:16:00,28.9,23.9,-100.00,SSE,166,0.0,0.0,81,0.00,,,0.00,VWS V14.01,2013-01-26 16:16:00,
2013-01-26 08:21:00,30.0,26.1,-100.00,SSE,166,0.0,0.0,85,0.00,,,0.00,VWS V14.01,2013-01-26 16:21:00,
2013-01-26 08:26:00,30.9,27.5,-100.00,SSE,161,0.0,0.0,87,0.00,,,0.00,VWS V14.01,2013-01-26 16:26:00,
2013-01-26 08:31:00,31.1,27.1,-100.00,SSE,161,0.0,0.0,85,0.00,,,0.00,VWS V14.01,2013-01-26 16:31:00,
2013-01-26 08:36:00,31.6,27.4,-100.00,SW,234,0.0,0.0,84,0.00,,,0.00,VWS V14.01,2013-01-26 16:36:00,
2013-01-26 08:41:00,32.2,26.7,-100.00,SW,235,0.0,0.0,80,0.00,,,0.00,VWS V14.01,2013-01-26 16:41:00,
2013-01-26 08:46:00,32.5,26.8,-100.00,SW,224,0.0,0.0,79,0.00,,,0.00,VWS V14.01,2013-01-26 16:46:00,
2013-01-26 08:51:00,32.7,26.6,-100.00,SSE,165,0.0,0.0,78,0.00,,,0.00,VWS V14.01,2013-01-26 16:51:00,
2013-01-26 08:56:00,33.3,26.5,-100.00,South,175,2.7,2.7,76,0.00,,,0.00,VWS V14.01,2013-01-26 16:56:00,
2013-01-26 09:01:00,33.6,25.6,-100.00,SE,143,0.0,2.2,72,0.00,,,0.00,VWS V14.01,2013-01-26 17:01:00,
2013-01-26 09:06:00,34.7,24.5,-100.00,East,97,0.0,0.0,66,0.00,,,0.00,VWS V14.01,2013-01-26 17:06:00,
2013-01-26 09:11:00,35.1,24.9,-100.00,SE,136,0.0,0.0,66,0.00,,,0.00,VWS V14.01,2013-01-26 17:11:00,
2013-01-26 09:16:00,35.2,24.7,-100.00,South,172,2.7,3.6,65,0.00,,,0.00,VWS V14.01,2013-01-26 17:16:00,
2013-01-26 09:21:00,35.4,24.1,-100.00,South,190,3.1,3.6,63,0.00,,,0.00,VWS V14.01,2013-01-26 17:21:00,
2013-01-26 09:26:00,35.6,23.5,-100.00,SSE,165,4.0,4.0,61,0.00,,,0.00,VWS V14.01,2013-01-26 17:26:00,
2013-01-26 09:31:00,35.8,23.7,-100.00,South,183,2.7,5.4,61,0.00,,,0.00,VWS V14.01,2013-01-26 17:31:00,
2013-01-26 09:36:00,36.1,23.2,-100.00,SSW,195,5.8,6.3,59,0.00,,,0.00,VWS V14.01,2013-01-26 17:36:00,
2013-01-26 09:41:00,36.3,23.0,-100.00,SSW,198,4.9,4.9,58,0.00,,,0.00,VWS V14.01,2013-01-26 17:41:00,
2013-01-26 09:46:00,36.7,23.3,-100.00,SSW,192,3.1,5.4,58,0.00,,,0.00,VWS V14.01,2013-01-26 17:46:00,
2013-01-26 09:51:00,37.0,23.2,-100.00,WSW,237,0.0,3.1,57,0.00,,,0.00,VWS V14.01,2013-01-26 17:51:00,
2013-01-26 09:56:00,37.2,22.6,-100.00,South,179,0.0,2.2,55,0.00,,,0.00,VWS V14.01,2013-01-26 17:56:00,
2013-01-26 10:01:00,37.6,22.9,-100.00,SW,222,2.7,2.7,55,0.00,,,0.00,VWS V14.01,2013-01-26 18:01:00,
2013-01-26 10:06:00,37.6,22.9,-100.00,SSW,195,2.7,3.6,55,0.00,,,0.00,VWS V14.01,2013-01-26 18:06:00,
2013-01-26 10:11:00,37.9,22.8,-100.00,SSE,150,0.0,0.0,54,0.00,,,0.00,VWS V14.01,2013-01-26 18:11:00,
2013-01-26 10:16:00,38.5,21.5,-100.00,SW,229,0.0,0.0,50,0.00,,,0.00,VWS V14.01,2013-01-26 18:16:00,
2013-01-26 10:21:00,38.7,22.1,-100.00,SW,230,0.0,0.0,51,0.00,,,0.00,VWS V14.01,2013-01-26 18:21:00,
2013-01-26 10:26:00,38.8,22.3,-100.00,SSW,193,0.0,0.0,51,0.00,,,0.00,VWS V14.01,2013-01-26 18:26:00,
2013-01-26 10:31:00,38.7,22.1,-100.00,SSW,197,0.0,0.0,51,0.00,,,0.00,VWS V14.01,2013-01-26 18:31:00,
2013-01-26 10:36:00,38.3,21.8,-100.00,West,281,0.0,0.0,51,0.00,,,0.00,VWS V14.01,2013-01-26 18:36:00,
2013-01-26 10:41:00,38.3,21.8,-100.00,WNW,290,2.2,2.7,51,0.00,,,0.00,VWS V14.01,2013-01-26 18:41:00,
2013-01-26 10:46:00,38.8,21.8,-100.00,West,278,0.0,0.0,50,0.00,,,0.00,VWS V14.01,2013-01-26 18:46:00,
2013-01-26 10:51:00,39.2,21.7,-100.00,SW,216,3.1,4.0,49,0.00,,,0.00,VWS V14.01,2013-01-26 18:51:00,
2013-01-26 10:56:00,39.7,21.7,-100.00,South,169,2.7,2.7,48,0.00,,,0.00,VWS V14.01,2013-01-26 18:56:00,
2013-01-26 11:01:00,40.5,21.3,-100.00,SSE,166,5.8,5.8,46,0.00,,,0.00,VWS V14.01,2013-01-26 19:01:00,
2013-01-26 11:06:00,40.6,21.5,-100.00,SW,236,0.0,0.0,46,0.00,,,0.00,VWS V14.01,2013-01-26 19:06:00,
2013-01-26 11:10:00,41.0,19.7,-100.00,West,261,2.2,2.7,42,0.00,,,0.00,VWS V14.01,2013-01-26 19:10:00,
2013-01-26 11:15:00,41.7,19.8,-100.00,ENE,61,2.2,2.2,41,0.00,,,0.00,VWS V14.01,2013-01-26 19:15:00,
2013-01-26 11:20:00,42.1,20.7,-100.00,WNW,288,2.7,3.6,42,0.00,,,0.00,VWS V14.01,2013-01-26 19:20:00,
2013-01-26 11:25:00,42.4,20.4,-100.00,WSW,242,4.9,4.9,41,0.00,,,0.00,VWS V14.01,2013-01-26 19:25:00,
2013-01-26 11:30:00,42.8,19.6,-100.00,NNW,335,2.7,3.6,39,0.00,,,0.00,VWS V14.01,2013-01-26 19:30:00,
2013-01-26 11:35:00,43.0,20.3,-100.00,SW,219,5.4,5.4,40,0.00,,,0.00,VWS V14.01,2013-01-26 19:35:00,
2013-01-26 11:40:00,43.2,20.5,-100.00,SW,223,2.2,4.0,40,0.00,,,0.00,VWS V14.01,2013-01-26 19:40:00,
2013-01-26 11:45:00,43.3,20.6,-100.00,WSW,254,5.4,5.8,40,0.00,,,0.00,VWS V14.01,2013-01-26 19:45:00,
2013-01-26 11:50:00,43.2,20.5,-100.00,South,171,3.6,6.3,40,0.00,,,0.00,VWS V14.01,2013-01-26 19:50:00,
2013-01-26 11:55:00,43.2,20.5,-100.00,SW,226,3.6,8.1,40,0.00,,,0.00,VWS V14.01,2013-01-26 19:55:00,
2013-01-26 12:00:00,43.3,20.6,-100.00,WSW,255,4.9,6.3,40,0.00,,,0.00,VWS V14.01,2013-01-26 20:00:00,
2013-01-26 12:05:00,43.3,20.1,-100.00,WNW,286,6.7,6.7,39,0.00,,,0.00,VWS V14.01,2013-01-26 20:05:00,
2013-01-26 12:10:00,43.3,20.6,-100.00,West,265,7.2,7.6,40,0.00,,,0.00,VWS V14.01,2013-01-26 20:10:00,
2013-01-26 12:15:00,42.6,20.0,-100.00,SSW,200,7.6,7.6,40,0.00,,,0.00,VWS V14.01,2013-01-26 20:15:00,
2013-01-26 12:20:00,42.3,19.7,-100.00,WSW,258,6.3,6.3,40,0.00,,,0.00,VWS V14.01,2013-01-26 20:20:00,
2013-01-26 12:25:00,42.8,20.2,-100.00,SW,215,4.0,7.2,40,0.00,,,0.00,VWS V14.01,2013-01-26 20:25:00,
2013-01-26 12:30:00,43.5,20.2,-100.00,West,259,3.6,5.4,39,0.00,,,0.00,VWS V14.01,2013-01-26 20:30:00,
2013-01-26 12:35:00,43.7,20.4,-100.00,West,261,5.8,5.8,39,0.00,,,0.00,VWS V14.01,2013-01-26 20:35:00,
2013-01-26 12:40:00,43.9,20.5,-100.00,SW,226,8.1,8.1,39,0.00,,,0.00,VWS V14.01,2013-01-26 20:40:00,
2013-01-26 12:45:00,43.9,20.5,-100.00,West,261,6.3,6.3,39,0.00,,,0.00,VWS V14.01,2013-01-26 20:45:00,
2013-01-26 12:50:00,44.1,20.7,-100.00,SW,217,4.0,4.0,39,0.00,,,0.00,VWS V14.01,2013-01-26 20:50:00,
2013-01-26 12:55:00,44.6,21.2,-100.00,SW,232,6.3,10.1,39,0.00,,,0.00,VWS V14.01,2013-01-26 20:55:00,
2013-01-26 13:00:00,44.8,21.4,-100.00,SSW,210,5.8,5.8,39,0.00,,,0.00,VWS V14.01,2013-01-26 21:00:00,
2013-01-26 13:05:00,44.2,20.9,-100.00,WSW,237,8.7,9.6,39,0.00,,,0.00,VWS V14.01,2013-01-26 21:05:00,
2013-01-26 13:10:00,43.7,20.4,-100.00,WSW,237,6.3,6.3,39,0.00,,,0.00,VWS V14.01,2013-01-26 21:10:00,
2013-01-26 13:15:00,43.5,20.8,-100.00,WSW,240,4.9,5.8,40,0.00,,,0.00,VWS V14.01,2013-01-26 21:15:00,
2013-01-26 13:20:00,43.3,20.6,-100.00,SW,216,3.6,5.8,40,0.00,,,0.00,VWS V14.01,2013-01-26 21:20:00,
2013-01-26 13:25:00,43.3,20.6,-100.00,SSW,197,4.9,5.4,40,0.00,,,0.00,VWS V14.01,2013-01-26 21:25:00,
2013-01-26 13:30:00,43.3,21.2,-100.00,SSE,163,5.4,5.4,41,0.00,,,0.00,VWS V14.01,2013-01-26 21:30:00,
2013-01-26 13:35:00,43.3,20.6,-100.00,SSW,197,5.4,5.4,40,0.00,,,0.00,VWS V14.01,2013-01-26 21:35:00,
2013-01-26 13:40:00,43.2,20.5,-100.00,SW,230,5.8,5.8,40,0.00,,,0.00,VWS V14.01,2013-01-26 21:40:00,
2013-01-26 13:45:00,42.6,20.0,-100.00,NW,319,3.1,4.0,40,0.00,,,0.00,VWS V14.01,2013-01-26 21:45:00,
2013-01-26 13:50:00,42.8,20.2,-100.00,SW,217,5.8,6.3,40,0.00,,,0.00,VWS V14.01,2013-01-26 21:50:00,
2013-01-26 13:55:00,42.8,20.8,-100.00,WSW,254,5.8,8.3,41,0.00,,,0.00,VWS V14.01,2013-01-26 21:55:00,
2013-01-26 14:00:00,42.6,20.6,-100.00,WSW,240,3.1,5.4,41,0.00,,,0.00,VWS V14.01,2013-01-26 22:00:00,
2013-01-26 14:05:00,42.1,20.7,-100.00,SW,232,4.9,5.8,42,0.00,,,0.00,VWS V14.01,2013-01-26 22:05:00,
2013-01-26 14:10:00,41.5,20.2,-100.00,WNW,301,2.7,5.4,42,0.00,,,0.00,VWS V14.01,2013-01-26 22:10:00,
2013-01-26 14:15:00,41.5,20.7,-100.00,WNW,288,4.0,6.3,43,0.00,,,0.00,VWS V14.01,2013-01-26 22:15:00,
2013-01-26 14:20:00,41.7,20.3,-100.00,West,266,3.6,4.0,42,0.00,,,0.00,VWS V14.01,2013-01-26 22:20:00,
2013-01-26 14:25:00,41.9,19.9,-100.00,NW,304,2.2,4.0,41,0.00,,,0.00,VWS V14.01,2013-01-26 22:25:00,
2013-01-26 14:30:00,41.9,19.9,-100.00,SW,231,6.7,8.1,41,0.00,,,0.00,VWS V14.01,2013-01-26 22:30:00,
2013-01-26 14:35:00,42.1,20.1,-100.00,SW,224,4.0,7.6,41,0.00,,,0.00,VWS V14.01,2013-01-26 22:35:00,
2013-01-26 14:40:00,41.9,19.4,-100.00,WNW,284,5.8,5.8,40,0.00,,,0.00,VWS V14.01,2013-01-26 22:40:00,
2013-01-26 14:45:00,41.7,19.2,-100.00,SW,220,3.6,4.5,40,0.00,,,0.00,VWS V14.01,2013-01-26 22:45:00,
2013-01-26 14:50:00,41.7,19.2,-100.00,NW,317,3.6,5.8,40,0.00,,,0.00,VWS V14.01,2013-01-26 22:50:00,
2013-01-26 14:55:00,41.5,19.0,-100.00,WNW,286,5.4,5.4,40,0.00,,,0.00,VWS V14.01,2013-01-26 22:55:00,
2013-01-26 15:00:00,41.2,18.7,-100.00,WSW,246,5.8,5.8,40,0.00,,,0.00,VWS V14.01,2013-01-26 23:00:00,
2013-01-26 15:05:00,41.2,19.3,-100.00,WSW,247,2.7,2.7,41,0.00,,,0.00,VWS V14.01,2013-01-26 23:05:00,
2013-01-26 15:10:00,41.2,19.3,-100.00,NW,318,4.0,4.0,41,0.00,,,0.00,VWS V14.01,2013-01-26 23:10:00,
2013-01-26 15:15:00,41.0,19.1,-100.00,WSW,246,4.0,6.3,41,0.00,,,0.00,VWS V14.01,2013-01-26 23:15:00,
2013-01-26 15:20:00,41.0,19.1,-100.00,WSW,242,4.0,4.0,41,0.00,,,0.00,VWS V14.01,2013-01-26 23:20:00,
2013-01-26 15:25:00,40.6,18.8,-100.00,West,274,5.4,6.3,41,0.00,,,0.00,VWS V14.01,2013-01-26 23:25:00,
2013-01-26 15:30:00,40.5,18.6,-100.00,West,280,3.6,5.4,41,0.00,,,0.00,VWS V14.01,2013-01-26 23:30:00,
2013-01-26 15:35:00,40.6,18.8,-100.00,NW,326,3.6,6.3,41,0.00,,,0.00,VWS V14.01,2013-01-26 23:35:00,
2013-01-26 15:40:00,40.5,18.6,-100.00,WNW,296,3.1,5.4,41,0.00,,,0.00,VWS V14.01,2013-01-26 23:40:00,
2013-01-26 15:45:00,40.3,19.0,-100.00,WNW,288,3.1,3.1,42,0.00,,,0.00,VWS V14.01,2013-01-26 23:45:00,
2013-01-26 15:50:00,39.7,18.5,-100.00,WSW,247,4.0,6.3,42,0.00,,,0.00,VWS V14.01,2013-01-26 23:50:00,
2013-01-26 15:55:00,39.4,18.8,-100.00,WSW,241,4.0,4.0,43,0.00,,,0.00,VWS V14.01,2013-01-26 23:55:00,
2013-01-26 16:00:00,39.2,19.7,-100.00,WNW,294,3.6,3.6,45,0.00,,,0.00,VWS V14.01,2013-01-27 00:00:00,
2013-01-26 16:05:00,38.8,20.4,-100.00,NNW,332,3.1,5.4,47,0.00,,,0.00,VWS V14.01,2013-01-27 00:05:00,
2013-01-26 16:10:00,38.5,21.0,-100.00,NNW,335,3.6,6.7,49,0.00,,,0.00,VWS V14.01,2013-01-27 00:10:00,
2013-01-26 16:15:00,38.1,20.7,-100.00,West,274,2.7,4.0,49,0.00,,,0.00,VWS V14.01,2013-01-27 00:15:00,
2013-01-26 16:20:00,37.9,20.5,-100.00,SW,231,0.0,3.1,49,0.00,,,0.00,VWS V14.01,2013-01-27 00:20:00,
2013-01-26 16:25:00,37.6,20.6,-100.00,WSW,247,3.6,4.5,50,0.00,,,0.00,VWS V14.01,2013-01-27 00:25:00,
2013-01-26 16:30:00,37.6,20.6,-100.00,West,276,3.1,3.1,50,0.00,,,0.00,VWS V14.01,2013-01-27 00:30:00,
2013-01-26 16:35:00,37.2,20.3,-100.00,West,267,2.2,3.6,50,0.00,,,0.00,VWS V14.01,2013-01-27 00:35:00,
2013-01-26 16:40:00,37.0,20.6,-100.00,West,264,0.0,2.2,51,0.00,,,0.00,VWS V14.01,2013-01-27 00:40:00,
2013-01-26 16:45:00,36.7,20.3,-100.00,WNW,289,3.1,3.6,51,0.00,,,0.00,VWS V14.01,2013-01-27 00:45:00,
2013-01-26 16:50:00,36.3,20.4,-100.00,West,261,0.0,0.0,52,0.00,,,0.00,VWS V14.01,2013-01-27 00:50:00,
2013-01-26 16:55:00,36.0,20.1,-100.00,West,280,0.0,0.0,52,0.00,,,0.00,VWS V14.01,2013-01-27 00:55:00,
2013-01-26 17:00:00,35.6,20.6,-100.00,WNW,293,0.0,0.0,54,0.00,,,0.00,VWS V14.01,2013-01-27 01:00:00,
2013-01-26 17:05:00,35.2,20.3,-100.00,NNW,329,2.2,5.8,54,0.00,,,0.00,VWS V14.01,2013-01-27 01:05:00,
2013-01-26 17:10:00,35.4,20.4,-100.00,WNW,284,0.0,4.0,54,0.00,,,0.00,VWS V14.01,2013-01-27 01:10:00,
2013-01-26 17:15:00,35.2,20.3,-100.00,SW,225,3.1,4.0,54,0.00,,,0.00,VWS V14.01,2013-01-27 01:15:00,
2013-01-26 17:20:00,35.1,20.5,-100.00,SSW,197,0.0,0.0,55,0.00,,,0.00,VWS V14.01,2013-01-27 01:20:00,
2013-01-26 17:25:00,35.1,20.5,-100.00,West,264,2.7,3.6,55,0.00,,,0.00,VWS V14.01,2013-01-27 01:25:00,
2013-01-26 17:30:00,34.9,20.4,-100.00,SSW,207,2.7,5.4,55,0.00,,,0.00,VWS V14.01,2013-01-27 01:30:00,
2013-01-26 17:35:00,34.9,20.4,-100.00,West,259,0.0,0.0,55,0.00,,,0.00,VWS V14.01,2013-01-27 01:35:00,
2013-01-26 17:40:00,34.9,20.8,-100.00,WSW,251,2.7,3.1,56,0.00,,,0.00,VWS V14.01,2013-01-27 01:40:00,
2013-01-26 17:45:00,34.9,20.8,-100.00,SW,231,2.7,2.7,56,0.00,,,0.00,VWS V14.01,2013-01-27 01:45:00,
2013-01-26 17:50:00,34.7,20.6,-100.00,West,266,0.0,0.0,56,0.00,,,0.00,VWS V14.01,2013-01-27 01:50:00,
2013-01-26 17:55:00,34.5,20.9,-100.00,SW,220,0.0,0.0,57,0.00,,,0.00,VWS V14.01,2013-01-27 01:55:00,
2013-01-26 18:00:00,34.3,20.7,-100.00,SW,221,2.7,3.1,57,0.00,,,0.00,VWS V14.01,2013-01-27 02:00:00,
2013-01-26 18:05:00,34.3,21.1,-100.00,SW,235,0.0,0.0,58,0.00,,,0.00,VWS V14.01,2013-01-27 02:05:00,
2013-01-26 18:10:00,34.0,20.8,-100.00,NNW,330,0.0,2.7,58,0.00,,,0.00,VWS V14.01,2013-01-27 02:10:00,
2013-01-26 18:15:00,34.0,20.8,-100.00,NNW,331,0.0,0.0,58,0.00,,,0.00,VWS V14.01,2013-01-27 02:15:00,
2013-01-26 18:20:00,33.8,21.8,-100.00,NNW,331,0.0,0.0,61,0.00,,,0.00,VWS V14.01,2013-01-27 02:20:00,
2013-01-26 18:25:00,33.3,21.3,-100.00,NNW,331,0.0,0.0,61,0.00,,,0.00,VWS V14.01,2013-01-27 02:25:00,
2013-01-26 18:30:00,32.9,21.7,-100.00,NNW,331,0.0,0.0,63,0.00,,,0.00,VWS V14.01,2013-01-27 02:30:00,
2013-01-26 18:35:00,32.7,21.1,-100.00,NNW,331,0.0,0.0,62,0.00,,,0.00,VWS V14.01,2013-01-27 02:35:00,
2013-01-26 18:40:00,32.5,21.4,-100.00,NNW,330,0.0,0.0,63,0.00,,,0.00,VWS V14.01,2013-01-27 02:40:00,
2013-01-26 18:45:00,32.2,21.4,-100.00,WNW,287,0.0,0.0,64,0.00,,,0.00,VWS V14.01,2013-01-27 02:45:00,
2013-01-26 18:50:00,32.2,21.0,-100.00,WSW,258,0.0,0.0,63,0.00,,,0.00,VWS V14.01,2013-01-27 02:50:00,
2013-01-26 18:55:00,32.2,21.0,-100.00,SW,234,0.0,0.0,63,0.00,,,0.00,VWS V14.01,2013-01-27 02:55:00,
2013-01-26 19:00:00,32.2,20.6,-100.00,SW,216,0.0,0.0,62,0.00,,,0.00,VWS V14.01,2013-01-27 03:00:00,
2013-01-26 19:05:00,32.2,20.3,-100.00,South,171,0.0,0.0,61,0.00,,,0.00,VWS V14.01,2013-01-27 03:05:00,
2013-01-26 19:10:00,32.0,20.5,-100.00,SSW,192,0.0,0.0,62,0.00,,,0.00,VWS V14.01,2013-01-27 03:10:00,
2013-01-26 19:15:00,31.6,20.5,-100.00,WSW,242,0.0,0.0,63,0.00,,,0.00,VWS V14.01,2013-01-27 03:15:00,
2013-01-26 19:20:00,31.8,20.7,-100.00,West,277,2.7,3.1,63,0.00,,,0.00,VWS V14.01,2013-01-27 03:20:00,
2013-01-26 19:25:00,32.0,20.5,-100.00,West,277,0.0,0.0,62,0.00,,,0.00,VWS V14.01,2013-01-27 03:25:00,
2013-01-26 19:30:00,32.2,19.9,-100.00,West,280,0.0,0.0,60,0.00,,,0.00,VWS V14.01,2013-01-27 03:30:00,
2013-01-26 19:35:00,32.4,19.6,-100.00,WNW,291,0.0,0.0,59,0.00,,,0.00,VWS V14.01,2013-01-27 03:35:00,
2013-01-26 19:40:00,32.4,19.6,-100.00,WNW,297,0.0,0.0,59,0.00,,,0.00,VWS V14.01,2013-01-27 03:40:00,
2013-01-26 19:45:00,32.4,19.6,-100.00,WNW,297,0.0,0.0,59,0.00,,,0.00,VWS V14.01,2013-01-27 03:45:00,
2013-01-26 19:50:00,32.2,19.5,-100.00,WNW,297,0.0,0.0,59,0.00,,,0.00,VWS V14.01,2013-01-27 03:50:00,
2013-01-26 19:55:00,32.2,19.5,-100.00,West,263,2.2,2.2,59,0.00,,,0.00,VWS V14.01,2013-01-27 03:55:00,
2013-01-26 20:00:00,32.4,18.8,-100.00,SW,232,3.1,4.0,57,0.00,,,0.00,VWS V14.01,2013-01-27 04:00:00,
2013-01-26 20:05:00,32.7,18.8,-100.00,SW,230,4.0,4.0,56,0.00,,,0.00,VWS V14.01,2013-01-27 04:05:00,
2013-01-26 20:10:00,32.7,18.8,-100.00,WNW,283,4.0,4.0,56,0.00,,,0.00,VWS V14.01,2013-01-27 04:10:00,
2013-01-26 20:15:00,32.9,18.9,-100.00,West,261,6.3,6.3,56,0.00,,,0.00,VWS V14.01,2013-01-27 04:15:00,
2013-01-26 20:20:00,33.1,19.1,-100.00,West,261,3.6,4.0,56,0.00,,,0.00,VWS V14.01,2013-01-27 04:20:00,
2013-01-26 20:25:00,33.3,19.3,-100.00,West,281,2.7,3.1,56,0.00,,,0.00,VWS V14.01,2013-01-27 04:25:00,
2013-01-26 20:30:00,33.1,19.5,-100.00,West,263,3.1,4.0,57,0.00,,,0.00,VWS V14.01,2013-01-27 04:30:00,
2013-01-26 20:35:00,33.1,19.5,-100.00,WSW,239,4.0,4.0,57,0.00,,,0.00,VWS V14.01,2013-01-27 04:35:00,
2013-01-26 20:40:00,32.9,19.4,-100.00,SW,231,3.1,3.1,57,0.00,,,0.00,VWS V14.01,2013-01-27 04:40:00,
2013-01-26 20:45:00,32.7,19.6,-100.00,SW,223,0.0,0.0,58,0.00,,,0.00,VWS V14.01,2013-01-27 04:45:00,
2013-01-26 20:50:00,32.7,19.6,-100.00,WSW,237,3.1,4.9,58,0.00,,,0.00,VWS V14.01,2013-01-27 04:50:00,
2013-01-26 20:55:00,32.5,19.8,-100.00,SW,231,4.0,4.0,59,0.00,,,0.00,VWS V14.01,2013-01-27 04:55:00,
2013-01-26 21:00:00,32.5,20.2,-100.00,SW,214,0.0,0.0,60,0.00,,,0.00,VWS V14.01,2013-01-27 05:00:00,
2013-01-26 21:01:00,32.5,20.2,-100.00,SW,218,2.2,3.6,60,0.00,,,0.00,VWS V14.01,2013-01-27 05:01:00,
2013-01-26 21:06:00,32.4,20.0,-100.00,WSW,253,3.6,4.0,60,0.00,,,0.00,VWS V14.01,2013-01-27 05:06:00,
2013-01-26 21:11:00,32.4,20.0,-100.00,SW,217,0.0,0.0,60,0.00,,,0.00,VWS V14.01,2013-01-27 05:11:00,
2013-01-26 21:16:00,32.4,20.0,-100.00,SW,234,2.2,8.7,60,0.00,,,0.00,VWS V14.01,2013-01-27 05:16:00,
2013-01-26 21:21:00,32.4,20.0,-100.00,WSW,257,2.7,2.7,60,0.00,,,0.00,VWS V14.01,2013-01-27 05:21:00,
2013-01-26 21:26:00,32.5,20.2,-100.00,West,278,2.2,2.7,60,0.00,,,0.00,VWS V14.01,2013-01-27 05:26:00,
2013-01-26 21:31:00,32.5,20.2,-100.00,WSW,249,2.2,2.2,60,0.00,,,0.00,VWS V14.01,2013-01-27 05:31:00,
2013-01-26 21:36:00,32.7,20.8,-100.00,WNW,301,4.0,4.0,61,0.00,,,0.00,VWS V14.01,2013-01-27 05:36:00,
2013-01-26 21:41:00,32.7,21.1,-100.00,SW,225,2.2,6.3,62,0.00,,,0.00,VWS V14.01,2013-01-27 05:41:00,
2013-01-26 21:46:00,32.9,21.7,-100.00,West,271,0.0,2.2,63,0.00,,,0.00,VWS V14.01,2013-01-27 05:46:00,
2013-01-26 21:51:00,32.9,22.1,-100.00,WSW,237,2.2,3.6,64,0.00,,,0.00,VWS V14.01,2013-01-27 05:51:00,
2013-01-26 21:56:00,32.9,22.1,-100.00,WSW,258,3.6,3.6,64,0.00,,,0.00,VWS V14.01,2013-01-27 05:56:00,
2013-01-26 22:01:00,32.7,22.3,-100.00,NW,306,0.0,0.0,65,0.00,,,0.00,VWS V14.01,2013-01-27 06:01:00,
2013-01-26 22:06:00,32.7,22.3,-100.00,West,265,3.1,3.6,65,0.00,,,0.00,VWS V14.01,2013-01-27 06:06:00,
2013-01-26 22:11:00,32.7,22.6,-100.00,WNW,283,0.0,0.0,66,0.00,,,0.00,VWS V14.01,2013-01-27 06:11:00,
2013-01-26 22:16:00,32.7,22.3,-100.00,SW,235,0.0,0.0,65,0.00,,,0.00,VWS V14.01,2013-01-27 06:16:00,
2013-01-26 22:21:00,32.5,22.5,-100.00,SW,222,0.0,0.0,66,0.00,,,0.00,VWS V14.01,2013-01-27 06:21:00,
2013-01-26 22:26:00,32.2,22.5,-100.00,West,275,0.0,0.0,67,0.00,,,0.00,VWS V14.01,2013-01-27 06:26:00,
2013-01-26 22:31:00,32.2,22.1,-100.00,WNW,290,0.0,0.0,66,0.00,,,0.00,VWS V14.01,2013-01-27 06:31:00,
2013-01-26 22:36:00,32.2,22.1,-100.00,West,271,0.0,0.0,66,0.00,,,0.00,VWS V14.01,2013-01-27 06:36:00,
2013-01-26 22:41:00,32.0,22.3,-100.00,West,271,0.0,0.0,67,0.00,,,0.00,VWS V14.01,2013-01-27 06:41:00,
2013-01-26 22:46:00,31.8,22.5,-100.00,West,264,2.7,3.1,68,0.00,,,0.00,VWS V14.01,2013-01-27 06:46:00,
2013-01-26 22:51:00,31.6,22.6,-100.00,West,264,0.0,0.0,69,0.00,,,0.00,VWS V14.01,2013-01-27 06:51:00,
2013-01-26 22:56:00,31.6,22.6,-100.00,WSW,257,0.0,0.0,69,0.00,,,0.00,VWS V14.01,2013-01-27 06:56:00,
2013-01-26 23:01:00,31.6,22.6,-100.00,WSW,252,0.0,0.0,69,0.00,,,0.00,VWS V14.01,2013-01-27 07:01:00,
2013-01-26 23:06:00,31.6,23.3,-100.00,WSW,252,0.0,0.0,71,0.00,,,0.00,VWS V14.01,2013-01-27 07:06:00,
2013-01-26 23:13:00,31.3,23.0,-100.00,WSW,252,0.0,0.0,71,0.00,,,0.00,VWS V14.01,2013-01-27 07:13:00,
2013-01-26 23:18:00,31.1,22.8,-100.00,WSW,252,0.0,0.0,71,0.00,,,0.00,VWS V14.01,2013-01-27 07:18:00,
2013-01-26 23:23:00,30.9,22.3,-100.00,WSW,252,0.0,0.0,70,0.00,,,0.00,VWS V14.01,2013-01-27 07:23:00,
2013-01-26 23:28:00,30.7,22.5,-100.00,WSW,252,0.0,0.0,71,0.00,,,0.00,VWS V14.01,2013-01-27 07:28:00,
2013-01-26 23:33:00,30.4,22.1,-100.00,WSW,252,0.0,0.0,71,0.00,,,0.00,VWS V14.01,2013-01-27 07:33:00,
2013-01-26 23:38:00,29.8,21.9,-100.00,WSW,252,0.0,0.0,72,0.00,,,0.00,VWS V14.01,2013-01-27 07:38:00,
2013-01-26 23:43:00,29.7,22.1,-100.00,WSW,252,0.0,0.0,73,0.00,,,0.00,VWS V14.01,2013-01-27 07:43:00,
2013-01-26 23:48:00,29.5,22.9,-100.00,WSW,252,0.0,0.0,76,0.00,,,0.00,VWS V14.01,2013-01-27 07:48:00,
2013-01-26 23:53:00,29.3,22.7,-100.00,WSW,252,0.0,0.0,76,0.00,,,0.00,VWS V14.01,2013-01-27 07:53:00,
2013-01-26 23:58:00,28.9,22.3,-100.00,SE,139,0.0,0.0,76,0.00,,,0.00,VWS V14.01,2013-01-27 07:58:00,